FW7817 Weather Reports


Display with metric or nautical units.
time (UTC)temp
F
wind
direction
speed
MPH
gust
MPH
rain 1hr
in
rain 24hr
in
rain mn
in
humidity
%
barometer
mb
20260904093432 80 198 1.0 7.0 0.00 0.00 0.00 74 1013.5
20260904092931 80 159 1.0 3.0 0.00 0.00 0.00 73 1013.4
20260904092431 80 294 0.0 2.0 0.00 0.00 0.00 73 1013.4
20260904091431 80 236 1.0 4.0 0.00 0.00 0.00 73 1013.3
20260904090929 80 198 0.0 4.0 0.00 0.00 0.00 73 1013.3
20260904090430 80 207 1.0 4.0 0.00 0.00 0.00 73 1013.2
20260904085930 80 286 1.0 4.0 0.00 0.00 0.00 73 1013.2
20260904085429 80 241 1.0 3.0 0.00 0.00 0.00 72 1013.3
20260904084930 80 247 0.0 3.0 0.00 0.00 0.00 72 1013.2
20260904084429 80 175 0.0 2.0 0.00 0.00 0.00 72 1013.2
20260904083923 80 175 1.0 7.0 0.00 0.00 0.00 72 1013.0
20260904083417 80 197 1.0 7.0 0.00 0.00 0.00 72 1012.9
20260904082405 80 175 1.0 2.0 0.00 0.00 0.00 72 1012.9
20260904081354 80 86 1.0 6.0 0.00 0.00 0.00 73 1013.0
20260904080847 80 270 1.0 6.0 0.00 0.00 0.00 73 1012.9
20260904075835 80 230 1.0 4.0 0.00 0.00 0.00 73 1012.9
20260904075329 80 132 1.0 3.0 0.00 0.00 0.00 73 1013.0
20260904074823 80 110 1.0 4.0 0.00 0.00 0.00 73 1013.0
20260904074317 80 44 0.0 4.0 0.00 0.00 0.00 73 1012.9
20260904073811 80 196 0.0 2.0 0.00 0.00 0.00 72 1013.0
20260904073305 80 226 0.0 3.0 0.00 0.00 0.00 72 1013.0
20260904072759 80 135 0.0 3.0 0.00 0.00 0.00 72 1013.2
20260904072253 81 113 0.0 3.0 0.00 0.00 0.00 72 1013.2
20260904071748 81 137 0.0 3.0 0.00 0.00 0.00 72 1013.3
20260904071241 81 133 0.0 2.0 0.00 0.00 0.00 72 1013.2
20260904070736 81 138 0.0 3.0 0.00 0.00 0.00 71 1013.3
20260904070230 81 141 0.0 3.0 0.00 0.00 0.00 71 1013.3
20260904065217 81 215 0.0 0.0 0.00 0.00 0.00 70 1013.3
20260904064711 81 215 0.0 0.0 0.00 0.00 0.00 70 1013.3
20260904064205 82 215 0.0 0.0 0.00 0.00 0.00 70 1013.4
20260904063659 82 215 0.0 0.0 0.00 0.00 0.00 69 1013.3
20260904063153 82 215 0.0 0.0 0.00 0.00 0.00 69 1013.3
20260904062647 82 215 0.0 0.0 0.00 0.00 0.00 69 1013.4
20260904062146 82 215 0.0 0.0 0.00 0.00 0.00 69 1013.4
20260904061635 82 215 0.0 2.0 0.00 0.00 0.00 68 1013.4
20260904061130 82 215 0.0 2.0 0.00 0.00 0.00 68 1013.4
20260904060623 82 232 0.0 2.0 0.00 0.00 0.00 68 1013.4
20260904060119 83 232 0.0 2.0 0.00 0.00 0.00 68 1013.4
20260904055105 83 121 0.0 3.0 0.00 0.00 0.00 67 1013.3
20260904054559 83 210 0.0 2.0 0.00 0.00 0.00 67 1013.2
20260904053547 83 288 0.0 3.0 0.00 0.00 0.00 67 1013.3
20260904053041 83 249 0.0 2.0 0.00 0.00 0.00 66 1013.2
20260904052535 83 302 0.0 2.0 0.00 0.00 0.00 66 1013.2
20260904052029 84 203 0.0 3.0 0.00 0.00 0.00 66 1013.0
20260904051523 84 274 0.0 3.0 0.00 0.00 0.00 65 1013.0
20260904051017 84 178 0.0 2.0 0.00 0.00 0.00 65 1013.2
20260904050515 84 177 0.0 2.0 0.00 0.00 0.00 65 1013.0
20260904050012 84 191 0.0 2.0 0.00 0.00 0.00 64 1012.9
20260904045512 85 265 0.0 2.0 0.00 0.00 0.00 64 1013.0
20260904045011 85 204 0.0 2.0 0.00 0.00 0.00 64 1013.0
20260904044512 85 212 0.0 7.0 0.00 0.00 0.00 63 1013.0
20260904044012 85 190 1.0 7.0 0.00 0.00 0.00 63 1013.0
20260904043511 85 118 1.0 4.0 0.00 0.00 0.00 63 1012.9
20260904043011 85 121 1.0 4.0 0.00 0.00 0.00 62 1012.9
20260904042512 85 218 1.0 3.0 0.00 0.00 0.00 62 1012.9
20260904042012 85 141 1.0 3.0 0.00 0.00 0.00 62 1012.9
20260904041512 85 155 1.0 4.0 0.00 0.00 0.00 62 1012.8
20260904041011 85 163 1.0 4.0 0.00 0.00 0.00 61 1012.9
20260904040512 86 217 1.0 6.0 0.00 0.00 0.00 61 1012.8
20260904040011 86 161 1.0 6.0 0.00 0.00 0.00 61 1012.8
20260904035512 86 184 0.0 3.0 0.00 0.00 0.00 60 1012.8
20260904035011 86 178 1.0 3.0 0.00 0.00 0.00 60 1012.8
20260904034512 86 130 1.0 4.0 0.00 0.00 0.00 59 1012.8
20260904034012 86 131 1.0 4.0 0.00 0.00 0.00 59 1012.8
20260904033511 86 157 1.0 6.0 0.00 0.00 0.00 59 1012.8
20260904033011 86 207 2.0 7.0 0.00 0.00 0.00 58 1012.7
20260904032512 86 144 2.0 7.0 0.00 0.00 0.00 58 1012.7
20260904032011 86 111 2.0 7.0 0.00 0.00 0.00 58 1012.7
20260904031511 86 172 2.0 8.0 0.00 0.00 0.00 58 1012.7
20260904031012 86 96 2.0 8.0 0.00 0.00 0.00 58 1012.6
20260904030510 86 164 2.0 8.0 0.00 0.00 0.00 58 1012.6
20260904030009 87 132 2.0 8.0 0.00 0.00 0.00 58 1012.6
20260904025510 87 101 2.0 7.0 0.00 0.00 0.00 58 1012.5
20260904025009 87 132 3.0 8.0 0.00 0.00 0.00 58 1012.4
20260904023512 87 166 3.0 8.0 0.00 0.00 0.00 59 1012.3
20260904023011 87 138 3.0 8.0 0.00 0.00 0.00 59 1012.2
20260904022504 87 123 3.0 9.0 0.00 0.00 0.00 59 1012.3
20260904021957 87 126 3.0 9.0 0.00 0.00 0.00 59 1012.2
20260904021451 88 141 2.0 7.0 0.00 0.00 0.00 59 1012.0
20260904020945 88 130 2.0 5.0 0.00 0.00 0.00 59 1012.0
20260904020440 88 140 2.0 6.0 0.00 0.00 0.00 58 1012.0
20260904015934 88 150 2.0 6.0 0.00 0.00 0.00 58 1012.0
20260904015428 88 169 2.0 6.0 0.00 0.00 0.00 58 1011.9
20260904014922 88 146 2.0 6.0 0.00 0.00 0.00 57 1012.0
20260904014415 89 131 2.0 6.0 0.00 0.00 0.00 57 1011.8
20260904013909 89 150 2.0 5.0 0.00 0.00 0.00 57 1011.7
20260904012857 89 139 2.0 6.0 0.00 0.00 0.00 56 1011.5
20260904012351 89 161 2.0 5.0 0.00 0.00 0.00 56 1011.5
20260904011845 90 118 2.0 5.0 0.00 0.00 0.00 55 1011.4
20260904011339 90 113 2.0 5.0 0.00 0.00 0.00 55 1011.4
20260904010833 90 148 2.0 5.0 0.00 0.00 0.00 55 1011.4
20260904010327 90 127 2.0 5.0 0.00 0.00 0.00 54 1011.3
20260904005821 91 145 2.0 5.0 0.00 0.00 0.00 54 1011.3
20260904005316 91 142 2.0 5.0 0.00 0.00 0.00 53 1011.2
20260904004809 91 155 2.0 5.0 0.00 0.00 0.00 53 1011.2
20260904003757 92 167 1.0 4.0 0.00 0.00 0.00 52 1011.3
20260904003252 92 146 2.0 4.0 0.00 0.00 0.00 52 1011.2
20260904002745 92 121 2.0 4.0 0.00 0.00 0.00 51 1011.3
20260904002239 93 159 2.0 6.0 0.00 0.00 0.00 50 1011.3
20260904001733 93 119 2.0 6.0 0.00 0.00 0.00 50 1011.3
20260904001227 93 150 2.0 6.0 0.00 0.00 0.00 50 1011.3
20260904000721 94 121 2.0 6.0 0.00 0.00 0.00 49 1011.3
20260904000215 94 107 3.0 7.0 0.00 0.00 0.00 49 1011.3
20260903235709 94 145 4.0 9.0 0.00 0.00 0.00 48 1011.2
20260903235203 94 130 4.0 8.0 0.00 0.00 0.00 48 1011.2
20260903234658 95 121 3.0 10.0 0.00 0.00 0.00 48 1011.2
20260903234151 95 130 3.0 10.0 0.00 0.00 0.00 47 1011.2
20260903233645 95 130 3.0 9.0 0.00 0.00 0.00 47 1011.3
20260903233139 95 145 3.0 9.0 0.00 0.00 0.00 46 1011.2
20260903232633 95 123 3.0 10.0 0.00 0.00 0.00 46 1011.2
20260903232127 96 141 4.0 9.0 0.00 0.00 0.00 46 1011.2
20260903231621 96 155 3.0 9.0 0.00 0.00 0.00 47 1011.2
20260903231115 96 131 3.0 8.0 0.00 0.00 0.00 46 1011.1
20260903230610 96 141 3.0 10.0 0.00 0.00 0.00 45 1011.1
20260903225557 96 210 3.0 9.0 0.00 0.00 0.00 46 1011.1
20260903225051 96 112 5.0 12.0 0.00 0.00 0.00 45 1011.2
20260903224545 97 130 4.0 12.0 0.00 0.00 0.00 45 1011.1
20260903224039 97 118 4.0 10.0 0.00 0.00 0.00 46 1011.1
20260903223534 97 178 4.0 10.0 0.00 0.00 0.00 45 1011.1
20260903222521 97 180 4.0 12.0 0.00 0.00 0.00 45 1011.0
20260903222015 97 153 5.0 13.0 0.00 0.00 0.00 45 1011.0
20260903221510 97 175 5.0 13.0 0.00 0.00 0.00 45 1011.1
20260903221003 97 132 4.0 11.0 0.00 0.00 0.00 44 1011.2
20260903220457 98 175 3.0 12.0 0.00 0.00 0.00 44 1011.2
20260903215951 98 132 4.0 12.0 0.00 0.00 0.00 45 1011.3
20260903215447 98 148 3.0 10.0 0.00 0.00 0.00 45 1011.3
20260903214940 98 150 4.0 9.0 0.00 0.00 0.00 45 1011.2
20260903214436 98 137 4.0 9.0 0.00 0.00 0.00 45 1011.2
20260903213927 98 125 3.0 10.0 0.00 0.00 0.00 45 1011.2
20260903213421 97 121 5.0 10.0 0.00 0.00 0.00 44 1011.4
20260903212409 97 169 4.0 10.0 0.00 0.00 0.00 45 1011.4
20260903211357 98 189 2.0 8.0 0.00 0.00 0.00 45 1011.6
20260903210852 98 105 2.0 9.0 0.00 0.00 0.00 45 1011.7
20260903210346 98 101 3.0 9.0 0.00 0.00 0.00 45 1011.8
20260903205839 97 190 3.0 12.0 0.00 0.00 0.00 47 1011.6
20260903205333 98 162 3.0 12.0 0.00 0.00 0.00 45 1011.9
20260903203831 97 131 3.0 13.0 0.00 0.00 0.00 47 1011.9
20260903203329 97 229 4.0 13.0 0.00 0.00 0.00 46 1012.1
20260903202828 98 114 4.0 11.0 0.00 0.00 0.00 47 1012.1
20260903202328 97 215 4.0 12.0 0.00 0.00 0.00 47 1012.1
20260903201826 97 129 5.0 12.0 0.00 0.00 0.00 47 1012.1
20260903200324 97 123 3.0 10.0 0.00 0.00 0.00 46 1012.2
20260903195326 97 133 4.0 11.0 0.00 0.00 0.00 48 1012.2
20260903194825 97 126 4.0 13.0 0.00 0.00 0.00 48 1012.2
20260903194325 97 139 4.0 13.0 0.00 0.00 0.00 48 1012.3
20260903193824 97 159 2.0 9.0 0.00 0.00 0.00 48 1012.3
20260903193324 97 236 2.0 8.0 0.00 0.00 0.00 48 1012.4
20260903192324 97 219 3.0 13.0 0.00 0.00 0.00 48 1012.7
20260903191825 97 126 5.0 13.0 0.00 0.00 0.00 49 1012.7
20260903191325 97 157 3.0 12.0 0.00 0.00 0.00 48 1012.8
20260903190825 97 120 2.0 7.0 0.00 0.00 0.00 50 1012.8
20260903190324 96 140 3.0 11.0 0.00 0.00 0.00 51 1012.8
20260903185825 96 204 3.0 11.0 0.00 0.00 0.00 50 1012.9
20260903185324 96 127 3.0 10.0 0.00 0.00 0.00 51 1012.9
20260903184824 96 111 4.0 11.0 0.00 0.00 0.00 51 1013.2
20260903184322 96 148 3.0 11.0 0.00 0.00 0.00 49 1013.2
20260903183822 96 128 2.0 7.0 0.00 0.00 0.00 50 1013.2
20260903183323 96 240 2.0 9.0 0.00 0.00 0.00 50 1013.3
20260903182821 96 292 3.0 12.0 0.00 0.00 0.00 52 1013.3
20260903182321 96 158 2.0 12.0 0.00 0.00 0.00 50 1013.3
20260903181820 96 200 2.0 9.0 0.00 0.00 0.00 51 1013.4
20260903181318 95 190 3.0 9.0 0.00 0.00 0.00 51 1013.5
20260903180821 95 127 3.0 10.0 0.00 0.00 0.00 52 1013.6
20260903180320 95 184 2.0 10.0 0.00 0.00 0.00 52 1013.7
20260903175308 94 153 3.0 11.0 0.00 0.00 0.00 52 1013.8
20260903174802 94 137 4.0 11.0 0.00 0.00 0.00 52 1013.9
20260903174256 94 111 4.0 11.0 0.00 0.00 0.00 52 1013.8
20260903173750 94 159 3.0 9.0 0.00 0.00 0.00 52 1013.9
20260903173245 95 161 2.0 8.0 0.00 0.00 0.00 53 1013.9
20260903172232 94 253 2.0 11.0 0.00 0.00 0.00 54 1014.0
20260903171726 94 118 3.0 9.0 0.00 0.00 0.00 53 1014.2
20260903171220 94 269 2.0 9.0 0.00 0.00 0.00 54 1014.2
20260903170714 94 157 2.0 8.0 0.00 0.00 0.00 54 1014.2
20260903170208 94 208 2.0 9.0 0.00 0.00 0.00 53 1014.2
20260903165702 93 117 2.0 9.0 0.00 0.00 0.00 56 1014.1
20260903165156 92 157 3.0 9.0 0.00 0.00 0.00 55 1014.3
20260903164650 92 173 3.0 9.0 0.00 0.00 0.00 55 1014.3
20260903164145 92 159 3.0 9.0 0.00 0.00 0.00 56 1014.3
20260903163639 92 148 2.0 11.0 0.00 0.00 0.00 57 1014.3
20260903163132 92 153 2.0 11.0 0.00 0.00 0.00 56 1014.3
20260903162117 92 157 2.0 6.0 0.00 0.00 0.00 56 1014.4
20260903161611 91 208 2.0 10.0 0.00 0.00 0.00 57 1014.4
20260903161111 91 223 2.0 10.0 0.00 0.00 0.00 57 1014.3
20260903160556 91 264 2.0 7.0 0.00 0.00 0.00 57 1014.4
20260903155038 90 80 3.0 9.0 0.00 0.00 0.00 58 1014.5
20260903154531 90 260 3.0 10.0 0.00 0.00 0.00 58 1014.5
20260903154026 90 138 2.0 9.0 0.00 0.00 0.00 60 1014.5
20260903153520 90 113 2.0 7.0 0.00 0.00 0.00 60 1014.5
20260903153014 89 200 1.0 7.0 0.00 0.00 0.00 61 1014.4
20260903152507 89 171 2.0 11.0 0.00 0.00 0.00 62 1014.6
20260903152002 88 138 2.0 11.0 0.00 0.00 0.00 63 1014.6
20260903151455 88 151 2.0 6.0 0.00 0.00 0.00 63 1014.7
20260903150949 88 142 1.0 6.0 0.00 0.00 0.00 61 1014.7
20260903150443 87 188 1.0 5.0 0.00 0.00 0.00 64 1014.8
20260903145937 87 140 2.0 10.0 0.00 0.00 0.00 64 1014.8
20260903145431 86 156 2.0 10.0 0.00 0.00 0.00 65 1014.6
20260903144926 86 172 2.0 6.0 0.00 0.00 0.00 64 1014.6
20260903144420 86 145 2.0 6.0 0.00 0.00 0.00 65 1014.5
20260903143914 86 256 2.0 6.0 0.00 0.00 0.00 65 1014.5
20260903142902 86 202 2.0 5.0 0.00 0.00 0.00 65 1014.3
20260903142356 85 189 2.0 8.0 0.00 0.00 0.00 65 1014.3
20260903141343 85 138 2.0 8.0 0.00 0.00 0.00 67 1014.5
20260903140837 84 254 2.0 8.0 0.00 0.00 0.00 67 1014.4
20260903140332 83 294 2.0 8.0 0.00 0.00 0.00 68 1014.3
20260903134814 82 146 3.0 13.0 0.00 0.00 0.00 69 1014.3
20260903134307 82 188 3.0 13.0 0.00 0.00 0.00 70 1014.3
20260903133802 81 150 2.0 9.0 0.00 0.00 0.00 70 1014.2
20260903132750 80 169 3.0 8.0 0.00 0.00 0.00 71 1014.3
20260903132246 80 134 3.0 9.0 0.00 0.00 0.00 72 1014.3
20260903131743 79 161 3.0 9.0 0.00 0.00 0.00 73 1014.2
20260903130726 78 148 2.0 9.0 0.00 0.00 0.00 74 1014.3
20260903130220 78 165 2.0 8.0 0.00 0.00 0.00 75 1014.2
20260903125714 78 192 2.0 8.0 0.00 0.00 0.00 75 1014.3
20260903125208 77 157 2.0 6.0 0.00 0.00 0.00 75 1014.2
20260903123656 77 157 2.0 9.0 0.00 0.00 0.00 75 1014.1
20260903123154 77 155 2.0 7.0 0.00 0.00 0.00 75 1014.2
20260903122652 77 138 2.0 7.0 0.00 0.00 0.00 75 1014.2
20260903122152 77 137 2.0 7.0 0.00 0.00 0.00 75 1014.2
20260903121150 77 155 2.0 8.0 0.00 0.00 0.00 75 1014.0
20260903115149 77 108 1.0 7.0 0.00 0.00 0.00 75 1013.9
20260903114648 77 139 1.0 7.0 0.00 0.00 0.00 74 1013.8
20260903114148 77 158 1.0 4.0 0.00 0.00 0.00 74 1013.8
20260903113144 77 165 1.0 6.0 0.00 0.00 0.00 74 1013.8
20260903112643 77 194 1.0 9.0 0.00 0.00 0.00 74 1013.6
20260903112144 77 136 1.0 9.0 0.00 0.00 0.00 74 1013.6
20260903111644 77 157 1.0 7.0 0.00 0.00 0.00 73 1013.6
20260903111144 77 170 1.0 3.0 0.00 0.00 0.00 73 1013.5
20260903110643 77 136 1.0 5.0 0.00 0.00 0.00 73 1013.6
20260903110143 77 149 1.0 5.0 0.00 0.00 0.00 73 1013.5
20260903105644 77 158 1.0 7.0 0.00 0.00 0.00 73 1013.6
20260903105144 77 173 1.0 7.0 0.00 0.00 0.00 73 1013.6
20260903104144 77 155 1.0 3.0 0.00 0.00 0.00 73 1013.4
20260903103643 77 173 1.0 3.0 0.00 0.00 0.00 73 1013.4
20260903103144 77 166 1.0 4.0 0.00 0.00 0.00 73 1013.5
20260903102644 77 184 1.0 4.0 0.00 0.00 0.00 73 1013.4
20260903102144 77 175 1.0 4.0 0.00 0.00 0.00 73 1013.4
20260903101643 77 154 1.0 4.0 0.00 0.00 0.00 73 1013.4
20260903101143 77 142 1.0 7.0 0.00 0.00 0.00 73 1013.4
20260903100641 77 165 1.0 7.0 0.00 0.00 0.00 73 1013.4
20260903095631 77 153 1.0 5.0 0.00 0.00 0.00 72 1013.4
20260903095132 77 173 1.0 5.0 0.00 0.00 0.00 72 1013.4